Flag for Canada Weather past 2 weeks in Richmond Hill, Ontario, Canada

Now
59 °F

Passing clouds.


Feels Like: 59 °F
Forecast: 50 / 74 °F
Wind: No wind

Location: Toronto Buttonville

Current Time: Aug 27, 2015 at 11:03:40 PM

Latest Report: Aug 27, 2015 at 10:00 PM


Visibility: 15 mi

Pressure: 30.17 "Hg

Humidity: 82%

Dew point: 54 °F

Location of Richmond HillLocation

Historic Weather in Richmond Hill — Graph

°F

Richmond Hill temperature yesterday

Maximum temperature yesterday: 68 °F (at 2:00 PM)
Minimum temperature yesterday: 59 °F (at 2:00 AM)
Average temperature yesterday: 62 °F

Past Weeks' High & Low Weather Summary

 TemperatureHumidityPressure
High90 °F (Aug 17, 2:00 PM)94% (Aug 15, 2:00 AM)30.22 "Hg (Aug 15, 2:00 AM)
Low52 °F (Aug 22, 6:00 AM)36% (Aug 22, 3:00 PM)29.71 "Hg (Aug 20, 7:00 AM)
Average70 °F73%29.99 "Hg
* Reported Aug 12 10:00 PM — Aug 27 10:00 PM, Richmond Hill, Weather by CustomWeather, © 2015

Note: Actual official high and low records may vary slightly from our data, if they occured in-between our weather recording intervals... More about our weather records

Advertising

Richmond Hill weather history for previous 24 hours

 ConditionsComfort  
Time TempWeatherWind HumidityBarometerVisibility
10:00 PM
Thu, Aug 27
59 °FPassing clouds.No wind82%30.17 "Hg15 mi
9:00 PM61 °FScattered clouds.3 mph77%30.17 "Hg15 mi
8:00 PM64 °FPartly sunny.6 mph68%30.15 "Hg15 mi
7:00 PM64 °FPartly sunny.8 mph68%30.14 "Hg15 mi
6:00 PM66 °FPartly sunny.9 mph64%30.14 "Hg15 mi
5:00 PM66 °FOvercast.9 mph64%30.14 "Hg15 mi
4:00 PM66 °FOvercast.7 mph60%30.14 "Hg15 mi
3:00 PM66 °FPartly sunny.6 mph64%30.15 "Hg15 mi
2:00 PM64 °FPartly sunny.9 mph68%30.16 "Hg15 mi
1:00 PM64 °FOvercast.10 mph68%30.15 "Hg15 mi
12:00 PM64 °FBroken clouds.6 mph73%30.16 "Hg15 mi
11:00 AM59 °FSprinkles. Partly sunny.15 mph82%30.16 "Hg14 mi
10:56 AM61 °FSprinkles. Partly sunny.10 mph77%30.16 "Hg14 mi
10:00 AM61 °FScattered clouds.8 mph77%30.14 "Hg15 mi
9:00 AM61 °FPassing clouds.6 mph77%30.13 "Hg15 mi
8:00 AM59 °FPartly sunny.6 mph77%30.12 "Hg15 mi
7:00 AM57 °FPassing clouds.2 mph88%30.11 "Hg15 mi
6:00 AM55 °FPassing clouds.5 mph94%30.09 "Hg15 mi
5:00 AM57 °FPassing clouds.5 mph82%30.08 "Hg15 mi
4:00 AM57 °FPassing clouds.6 mph82%30.07 "Hg15 mi
3:00 AM57 °FPassing clouds.6 mph82%30.06 "Hg15 mi
2:00 AM57 °FPassing clouds.5 mph82%30.07 "Hg15 mi
1:00 AM59 °FPassing clouds.8 mph82%30.06 "Hg15 mi
12:00 AM59 °FPassing clouds.6 mph82%30.07 "Hg15 mi
11:00 PM
Wed, Aug 26
59 °FPassing clouds.6 mph82%30.07 "Hg15 mi
Weather by CustomWeather, © 2015

See weather overviewHow to use our weather pages